Preview of NWS' New Version of Forecast
This preview is not operational and should not be used for support decisions.

Regional Weather Roundup (RWR)

Issued by Philadelphia/Mt Holly (PHI)

                            
000
ASUS41 KPHI 210812
RWRPHI

REGIONAL WEATHER ROUNDUP
NATIONAL WEATHER SERVICE MOUNT HOLLY NJ
400 AM EDT THU MAR 21 2019

NOTE:  "FAIR" INDICATES FEW OR NO CLOUDS BELOW 12,000 FEET WITH NO
SIGNIFICANT WEATHER AND/OR OBSTRUCTIONS TO VISIBILITY.

 * = STATION DOES NOT REPORT PRECIPITATION (E.G. RAIN, SNOW, ETC.) 
        OR FOG.

NJZ015>026-210900-
SOUTHERN NEW JERSEY
  
CITY           SKY/WX    TMP DP  RH WIND       PRES   REMARKS
POMONA         CLOUDY    46  44  93 E10       30.14F                  
WILDWOOD*      LGT RAIN  46  43  89 E8        30.12F                  
MILLVILLE      CLOUDY   N/A N/A N/A E7        30.12F                  
WRIGHTSTOWN    LGT RAIN  43  37  81 E3        30.14F                  
MOUNT HOLLY    LGT RAIN  42  38  85 CALM      30.16F                  
TRENTON        LGT RAIN  43  35  73 E3        30.16F                  

$$
NJZ001>014-210900-
NORTHERN NEW JERSEY
  
CITY           SKY/WX    TMP DP  RH WIND       PRES   REMARKS
SUSSEX         CLOUDY    37  31  78 CALM      30.16F                  
ANDOVER*         N/A     41  30  65 CALM      30.15F                  
MORRISTOWN     CLOUDY    41  36  81 CALM      30.18F                  
NEWARK         CLOUDY    45  35  68 E6        30.18F                  
TETERBORO      CLOUDY    45  34  65 E6        30.18F                  
CALDWELL       CLOUDY    42  35  76 E6        30.19F                  
SOMERVILLE     CLOUDY    40  34  79 CALM      30.16F                  
ALLAIRE*       LGT RAIN  44  39  82 SE7       30.18F                  
TOMS RIVER*    CLOUDY    44  42  93 SE6       30.17F                  

$$
PAZ043-044-047-054-055-060>062-066>071-210900-
EASTERN PENNSYLVANIA
  
CITY           SKY/WX    TMP DP  RH WIND       PRES   REMARKS
PHILADELPHIA   LGT RAIN  43  40  89 E8        30.15F FOG              
NORTH PHILA    LGT RAIN  45  37  73 E5        30.17F                  
BLUE BELL*     CLOUDY    41  36  81 CALM      30.16F                  
DOYLESTOWN     CLOUDY    41  34  76 CALM      30.15F                  
QUAKERTOWN*    CLOUDY    39  36  87 CALM      30.14                   
PERKASIE*      LGT RAIN  37  36  93 E3        30.15F                  
POTTSTOWN      CLOUDY    40  34  79 E3        30.15F                  
LANCASTER      CLOUDY    43  35  73 E6        30.12F                  
COATESVILLE    LGT RAIN  39  37  93 E6G13     30.13F WCI  35          
READING        LGT RAIN  43  36  76 SE6       30.13F                  
ALLENTOWN      CLOUDY    42  33  70 E6        30.15F                  
MOUNT POCONO   MOCLDY    33  28  81 E5        30.10F WCI  29          
HAZLETON       CLOUDY    36  28  75 SE5       30.12F WCI  32          
LEHIGHTON      CLOUDY    37  32  81 CALM      30.15F                  
WILKES BARRE   FAIR      36  28  73 CALM      30.11F                  

$$
DEZALL-MDZ008-012-015-019-020-210900-
DELAWARE AND EASTERN MARYLAND
  
CITY           SKY/WX    TMP DP  RH WIND       PRES   REMARKS
WILMINGTON     LGT RAIN  42  40  92 E6        30.14F FOG              
DOVER          LGT RAIN  45  45  98 E8        30.11F                  
GEORGETOWN     LGT RAIN  49  44  83 E12       30.10F                  
EASTON         RAIN      46  45  95 NE6       30.11F                  
PATUXENT       CLOUDY    47  47 100 NE6       30.06  FOG              
OCEAN CITY     LGT RAIN  46  45  96 E5        30.09F                  
WALLOPS ISLAND LGT RAIN  50  48  93 NE9       30.07F                  
CAMBRIDGE      MOCLDY    46  46 100 E7        30.07F FOG              
SALISBURY      LGT RAIN  47  47 100 E8        30.07F                  

$$
PAZ001-021-NYZ056-072-MDZ011-DCZ001-210900-
OTHER NEARBY LOCATIONS
  
CITY           SKY/WX    TMP DP  RH WIND       PRES   REMARKS
HARRISBURG     CLOUDY    43  32  65 E5        30.11F                  
STATE COLLEGE  FAIR      39  24  56 CALM      30.06F                  
WILLIAMSPORT   CLOUDY    40  29  64 E12       30.10F WCI  33          
BINGHAMTON     MOCLDY    34  23  64 S8        30.06F WCI  27          
NEW YORK CITY  CLOUDY    44  35  70 NE5       30.21F                  
BALTIMORE      CLOUDY    43  40  89 NE7       30.09F                  
WASHINGTON DC  LGT RAIN  44  40  85 N8        30.10F FOG              

$$